Flag for Norway Weather past 2 weeks in Finse, Norway

Now
40 °F

Chilly.


Feels Like: 37 °F
Forecast: 32 / 36 °F
Wind: 5 mph from Southwest

Location: Finsevatn

Current Time: Oct 24, 2014 at 6:07:56 PM

Latest Report: Oct 24, 2014 at 5:00 PM


Visibility: N/A

Pressure: 29.70 "Hg

Humidity: 83%

Dew point: 35 °F

Location of FinseLocation

Historic Weather in Finse — Graph

°F

Finse temperature yesterday

Maximum temperature yesterday: 38 °F (at 11:00 PM)
Minimum temperature yesterday: 33 °F (at 5:00 AM)
Average temperature yesterday: 35 °F

Past Weeks' High & Low Weather Summary

 TemperatureHumidityPressure
High46 °F (Oct 19, 3:00 PM)96% (Oct 9, 4:00 PM)30.09 "Hg (Oct 9, 4:00 PM)
Low26 °F (Oct 14, 8:00 AM)66% (Oct 14, 1:00 PM)29.26 "Hg (Oct 19, 9:00 PM)
Average35 °F89%29.76 "Hg
* Reported Oct 9 4:00 PM — Oct 24 4:00 PM, Finse, Weather by CustomWeather, © 2014

Note: Actual official high and low records may vary slightly from our data, if they occured in-between our weather recording intervals... More about our weather records

Advertising

Finse weather history for previous 24 hours

 ConditionsComfort  
Time TempWeatherWind HumidityBarometerVisibility
4:00 PM
Oct 24
41 °FQuite cool.9 mph81%29.69 "HgN/A
3:00 PM42 °FQuite cool.12 mph81%29.68 "HgN/A
2:00 PM44 °FQuite cool.12 mph79%29.67 "HgN/A
1:00 PM44 °FQuite cool.13 mph80%29.68 "HgN/A
12:00 PM45 °FQuite cool.9 mph80%29.67 "HgN/A
11:00 AM42 °FQuite cool.8 mph88%29.69 "HgN/A
10:00 AM40 °FQuite cool.7 mph90%29.70 "HgN/A
9:00 AM40 °FChilly.7 mph90%29.71 "HgN/A
8:00 AM38 °FChilly.3 mph91%29.71 "HgN/A
7:00 AM38 °FChilly.3 mph92%29.72 "HgN/A
6:00 AM39 °FChilly.6 mph87%29.71 "HgN/A
5:00 AM41 °FQuite cool.10 mph82%29.69 "HgN/A
4:00 AM41 °FQuite cool.8 mph83%29.70 "HgN/A
3:00 AM39 °FChilly.8 mph90%29.71 "HgN/A
2:00 AM39 °FChilly.9 mph91%29.72 "HgN/A
1:00 AM39 °FChilly.9 mph93%29.74 "HgN/A
12:00 AM38 °FChilly.7 mph93%29.75 "HgN/A
11:00 PM
Oct 23
38 °FChilly.7 mph92%29.77 "HgN/A
10:00 PM38 °FChilly.7 mph92%29.79 "HgN/A
9:00 PM38 °FChilly.8 mph92%29.80 "HgN/A
8:00 PM37 °FChilly.7 mph94%29.82 "HgN/A
7:00 PM37 °FChilly.6 mph95%29.83 "HgN/A
6:00 PM37 °FChilly.6 mph93%29.83 "HgN/A
Weather by CustomWeather, © 2014

See weather overviewHow to use our weather pages